Location: Hawks Ness
(60.2333°N, 1.1667°W)
Time: 12:30:12
(UTC+00:00)

Cosmos 1953 - Pass Details

Date: 22 October 2019
Orbit: 538 x 559 km, 82.5° (Epoch: 20 November)

Event Time Altitude Azimuth Distance (km) Brightness Sun altitude
Rises 04:33:20 0° 342° (NNW) 2,750 5.8 -18.9°
Reaches altitude 10° 04:35:35 10° 336° (NNW) 1,847 4.9 -18.6°
Enters shadow 04:38:31 36° 300° (WNW) 897 3.0 -18.2°
Exits shadow 04:44:49 - 190° (S) 2,463 5.5 -17.5°
Sets 04:45:25 0° 189° (S) 2,706 5.7 -17.4°
